This is the latest recevied weather packets stored in our database for station/object KC8TAI. If no packets are shown the sender has not sent any weather packets the latest 10 day(s).
| Time | Temp. | Humidity | Pressure | Rain* | Wind** | Luminosity | Snow |
|---|---|---|---|---|---|---|---|
| 1777461919 | 11.67° C | 98% | 1011.9 hPa | 0 mm | - | 36 W/m² | - |
| 1777460120 | 11.11° C | 98% | 1012.1 hPa | 0 mm | - | 10 W/m² | - |
| 1777452322 | 10.56° C | 98% | 1012.5 hPa | 0 mm | - | 0 W/m² | - |
| 1777450543 | 11.11° C | 98% | 1012.8 hPa | 0 mm | - | 0 W/m² | - |
| 1777447524 | 11.11° C | 98% | 1012.8 hPa | 0 mm | - | 0 W/m² | - |
| 1777446924 | 10.56° C | 98% | 1013 hPa | 0 mm | - | 0 W/m² | - |
| 1777446324 | 11.11° C | 98% | 1013 hPa | 0 mm | - | 0 W/m² | - |
| 1777440325 | 11.11° C | 97% | 1014.2 hPa | 0 mm | - | 0 W/m² | - |
| 1777437918 | 11.11° C | 97% | 1014.4 hPa | 0 mm | - | 0 W/m² | - |
| 1777434918 | 11.11° C | 97% | 1015.1 hPa | 0 mm | - | 0 W/m² | - |
| 1777434316 | 11.11° C | 97% | 1015.2 hPa | 0 mm | - | 0 W/m² | - |
| 1777432516 | 11.11° C | 96% | 1014.8 hPa | 0 mm | - | 0 W/m² | - |
| 1777427718 | 12.78° C | 94% | 1015.3 hPa | 0 mm | - | 0 W/m² | - |
| 1777425918 | 13.89° C | 93% | 1015 hPa | 0 mm | - | 0 W/m² | - |
| 1777425338 | 13.89° C | 93% | 1015 hPa | 0 mm | - | 0 W/m² | - |
| 1777422916 | 15.56° C | 88% | 1014.2 hPa | 0 mm | - | 0 W/m² | - |
| 1777422356 | 16.11° C | 86% | 1014.1 hPa | 0 mm | - | 1 W/m² | - |
| 1777421716 | 17.22° C | 84% | 1013.9 hPa | 0 mm | - | 2 W/m² | - |
| 1777419917 | 18.89° C | 76% | 1014.5 hPa | 0 mm | - | 24 W/m² | - |
| 1777418117 | 19.44° C | 74% | 1014 hPa | 0 mm | - | 57 W/m² | - |
| 1777415718 | 20° C | 73% | 1014.7 hPa | 0 mm | - | 135 W/m² | - |
| 1777415116 | 19.44° C | 74% | 1014.8 hPa | 0 mm | - | 231 W/m² | - |
| 1777412716 | 18.89° C | 78% | 1014.7 hPa | 0 mm | - | 192 W/m² | - |
| 1777409117 | 19.44° C | 77% | 1014.8 hPa | 0 mm | - | 566 W/m² | - |
| 1777406718 | 17.22° C | 84% | 1015.3 hPa | 0 mm | - | 327 W/m² | - |
* Rain latest hour (hover to see other rain measurements)
** Current wind speed in m/s (hover to see current wind gust speed)